Regional Weather Roundup
Issued by NWS Green Bay, WI

Home | Current Version | Previous Version | Text Only | Print | Product List | Glossary On
Versions: 1 2 3 4 5 6 7 8 9 10 11 12 13 14 15 16 17 18 19 20 21 22 23 24 25 26 27 28 29 30 31 32 33 34 35 36 37 38 39 40 41 42 43 44 45 46 47 48 49
203
ASUS43 KGRB 221411
RWRGRB

NORTH-CENTRAL AND NORTHEAST WISCONSIN REGIONAL WEATHER ROUNDUP
NATIONAL WEATHER SERVICE GREEN BAY WI
900 AM CDT FRI MAY 22 2015

WIZ005-009-010>012-018-019-221500-
NORTH CENTRAL WISCONSIN

CITY           SKY/WX    TMP DP  RH WIND       PRES   REMARKS
IRONWOOD       SUNNY     52  36  54 SW7       30.18R
MANITOWISH WTR SUNNY     52  34  49 CALM      30.21R
ARBOR VITAE    SUNNY     54  33  44 NW3       30.20S
EAGLE RIVER    SUNNY     52  29  41 SW6       30.20S
LAND O LAKES   SUNNY     53  27  36 W3        30.21R
RHINELANDER    SUNNY     54  33  45 W6        30.21R
PHILLIPS       SUNNY     53  38  58 CALM      30.21S
ANTIGO         SUNNY     51  33  49 SW8       30.22R
TOMAHAWK       SUNNY     52  35  51 CALM      30.22R
MERRILL        SUNNY     52  34  49 SW3       30.23R
$$

WIZ013-073-221500-
NORTHEAST WISCONSIN

CITY           SKY/WX    TMP DP  RH WIND       PRES   REMARKS
IRON MOUNTAIN  SUNNY     50  20  30 CALM      30.21R
MARINETTE      SUNNY     52  25  35 E3        30.22R
OCONTO         SUNNY     52  26  37 W3        30.22S
$$

WIZ017-030-035>037-045-221500-
CENTRAL WISCONSIN

CITY           SKY/WX    TMP DP  RH WIND       PRES   REMARKS
MEDFORD        SUNNY     53  37  53 S3        30.22R
WAUSAU         SUNNY     53  32  44 SW5       30.21R
MOSINEE        SUNNY     52  32  46 S7        30.23R
MARSHFIELD     SUNNY     55  33  43 S8        30.22R
WISC RAPIDS    SUNNY     56  28  34 S5        30.24R
STEVENS POINT  SUNNY     53  31  42 SW7       30.23R
WAUPACA        SUNNY     56  28  33 CALM      30.23S
SHAWANO        SUNNY     55  23  29 E3        30.23R
CLINTONVILLE   SUNNY     52  32  46 CALM      30.23R
$$

WIZ038-039-048-051-221500-
FOX VALLEY

CITY           SKY/WX    TMP DP  RH WIND       PRES   REMARKS
NWS GREEN BAY  SUNNY     54  26  34 NE3       30.23R
APPLETON       SUNNY     50  32  50 CALM      30.23R
OSHKOSH        SUNNY     54  30  40 E7        30.22R
FOND DU LAC    SUNNY     56  28  34 E3        30.23R
$$

WIZ022-050-052-221500-
EAST CENTRAL WISCONSIN

CITY           SKY/WX    TMP DP  RH WIND       PRES   REMARKS
STURGEON BAY   SUNNY     48  27  43 NW7       30.25R
MANITOWOC      SUNNY     53  28  38 CALM      30.23R
SHEBOYGAN      SUNNY     52  29  41 CALM      30.23R
$$

LMZ563-521-522-541>543-221500-
LAKESHORE

STATION/POSITION TIME  TEMP    WIND        PRES    VSBY  WAVE
                       AIR SEA DIR/SP/G                  HT/PER
                 (UTC) (F)     (DEG/KT/KT) (MB)    (MI)  (FT/S)
SHEBOYGAN LKSHOR 1400           10/  5/  6 1024.5R
KEWAUNEE LKSHORE 1300           30/  1/  5 1022.1R
NORTHPORT PIER   1300   45     350/  3/  4 1023.4R
N MID LAKE BUOY  1350   38 36   40/  6/  6 1024.2R         1
SISTER BAY LKSHO 1317   50     360/  9/ 11   N/A
CHAMBERS ISLAND  1300   46      10/  6/  8 1023.4R
MENOMINEE LKSHOR 1300   45     360/  6/  7 1023.8R
$$



USA.gov is the U.S. government's official web portal to all federal, state and local government web resources and services.